Location: ČR
(50.0000°N, 15.0000°E)
Time: 14:47:31
(UTC+00:00)

Explorer 7 - Pass Details

Date: 27 October 2021
Orbit: 483 x 675 km, 50.3° (Epoch: 27 November)

Event Time Altitude Azimuth Distance (km) Brightness Sun altitude
Rises 19:23:27 0° 232° (SW) 2,613 - -35.1°
Reaches altitude 10° 19:25:39 10° 226° (SW) 1,755 - -35.4°
Maximum altitude 19:29:28 45° 153° (SSE) 745 - -36.0°
Drops below altitude 10° 19:33:31 10° 80° (E) 1,871 - -36.5°
Sets 19:35:55 0° 75° (ENE) 2,808 - -36.9°
